GUOWANG

导读 | 豆包AI

HULIANWANG DIGUI-108是中国于2025年12月6日在海南商业航天发射场,由长征八号甲运载火箭成功发射的卫星互联网低轨卫星,由航天科技集团五院抓总研制,发射后顺利进入预定轨道。该卫星属于低轨卫星互联网星座组网序列,将服务于全球网络覆盖,提升卫星互联通信能力,推动中国天地一体化网络建设,拓展商业航天应用场景,助力全球宽带互联服务发展。

Basic Information
目录编号:
66918
目录名称:
HULIANWANG DIGUI-108
国际标识:
2025-285D
轨道中心:
EARTH
卫星名称:
HULIANWANG DIGUI-108
卫星全名:
GUOWANG
卫星状态:
在轨 (已飞行146 天)
发射日期:
2025-12-06 UTC
国别 :
中国 (CN)
星等 :
--
Orbit Information
数据来源 国际轨道数据 AOE轨道数据
星历时间 2026-05-01T01:06:08+0800
14小时前
查看轨道信息
2026-05-01T02:00:00+0800
13小时前
查看轨道信息
半长轴 7527.452km 7527.456km
偏心率 0.00009 0.0000838
轨道倾角 50.006° 50.005°
近地点辐角 125.647° 121.177°
升交点赤经 316.262° 316.129°
平近点角 234.449° 58.024°
近地点 1148.637km 1148.688km
远地点 1149.993km 1149.95km
周期 108.326分钟 108.326分钟
每日圈数 13.293239 13.293228
Detailed Information
使用方式:
暂无
2D Orbit Map
3D Orbit Map
Orbit Altitude Analysis Chart
Orbit Inclination Analysis Chart
Orbit Comprehensive Analysis Chart
View Comprehensive Chart